Webcam more information Webcam


altri nostri siti meteo:

RISCHIO INCENDIRischio incendi

Pomeziameteo 1Sito sul meteo

Pomeziameteo DashboardSito sul meteo

Caput FrigorisSito sul meteo

BarcellonameteoSito sul meteo

MeteoipassiSito sul meteo

TortoretometeolidoSito sul meteo

CastelnuovovomanometeoSito sul meteo

MeteogonzagaSito sul meteo

MeteonetworkInvio dai a Meteonetwork



Non è richiesta alcuna attenzione speciale.    Non sono presenti avvisi meteorologici di particolare rilevanza

Select another period ( hide this area )

Unita Periodo Custom range Directly to
Metrico Inglese Entrambi
Quotidiano Settimanale mensile Annuale
use both date-selectors for a custom range
previous Day
With this date

WeatherUnderground graphs for this period ( click here )


Quotidiano Riepilogo per Lunedi' 09 Dicembre 2019
Tempo Temp. ( °C ) Dew pt. ( °C ) Vento ( km/h ) da Raffica ( km/h ) Pressione ( hPa ) Humid.( % ) Rainrate ( cm )
Max13,9 10,7 24,1 Sud ( 550/2092 ) 38,6 1017,2 91 -
Media10,8 8,3 7,7 Sud #62/273 15,1 1010,9 85 -
Min8,1 5,9 -   0,0 1007,3 71 -
Quotidiano Tabular details for Lunedi' 09 Dicembre 2019
Tempo Temp. ( °C ) Dew pt. ( °C ) Vento ( km/h ) da Raffica ( km/h ) Pressione ( hPa ) Humid.( % ) Rainrate ( cm )
00:00 11,0 8,9 12,9 Sud 16,1 1017,2 87 -
00:05 11,1 8,9 6,4 Sud 16,1 1017,2 87 -
00:10 11,0 8,9 9,7 S 14,5 1017,2 87 -
00:15 11,0 8,9 14,5 Sud 16,1 1017,2 87 -
00:20 11,1 8,9 8,0 Sud 17,7 1017,2 87 -
00:25 11,0 9,1 9,7 S 14,5 1017,2 88 -
00:30 11,1 9,1 9,7 Sud 17,7 1016,8 88 -
00:35 11,0 9,1 3,2 S 16,1 1016,8 88 -
00:40 11,1 9,1 6,4 S 17,7 1016,8 88 -
00:45 11,1 9,3 9,7 Sud 16,1 1016,5 89 -
00:50 11,0 9,2 9,7 S 14,5 1016,5 89 -
00:55 11,0 9,2 4,8 SE 16,1 1016,5 89 -
01:00 10,9 9,2 12,9 S 16,1 1016,5 89 -
01:05 10,9 9,2 9,7 S 17,7 1016,5 89 -
01:10 11,0 9,2 6,4 S 20,9 1016,5 89 -
01:15 10,9 9,2 3,2 S 19,3 1016,1 89 -
01:20 10,9 9,2 14,5 SE 22,5 1016,1 89 -
01:25 11,0 9,2 8,0 Sud 16,1 1016,1 89 -
01:30 10,9 9,2 6,4 Sud 17,7 1016,1 89 -
01:35 11,0 9,2 6,4 S 14,5 1016,1 89 -
01:40 11,0 9,2 12,9 Sud 17,7 1016,1 89 -
01:45 11,1 9,3 6,4 S 16,1 1015,8 89 -
01:50 11,0 9,2 9,7 Sud 17,7 1015,8 89 -
01:55 10,9 9,2 16,1 Sud 19,3 1015,8 89 -
02:00 10,9 9,2 1,6 Sud 17,7 1015,8 89 -
02:05 11,0 9,2 4,8 S 16,1 1015,8 89 -
02:10 11,0 9,2 6,4 S 16,1 1015,8 89 -
02:15 11,0 9,2 3,2 S 17,7 1015,8 89 -
02:20 11,0 9,2 6,4 S 16,1 1015,8 89 -
02:25 11,0 9,2 4,8 Sud 14,5 1015,8 89 -
02:30 10,9 9,3 8,0 Sud 16,1 1015,8 90 -
02:35 10,9 9,3 3,2 S 14,5 1015,5 90 -
02:40 10,9 9,3 9,7 Sud 17,7 1015,5 90 -
02:45 10,8 9,2 6,4 Sud 17,7 1015,5 90 -
02:50 10,7 9,1 4,8 Sud 17,7 1015,5 90 -
02:55 10,7 9,1 9,7 S 19,3 1015,5 90 -
03:00 10,6 9,0 11,3 Sud 17,7 1015,5 90 -
03:05 10,5 8,9 8,0 Sud 17,7 1015,5 90 -
03:10 10,4 8,8 12,9 S 19,3 1015,5 90 -
03:15 10,4 8,8 12,9 Sud 19,3 1015,1 90 -
03:20 10,3 8,7 11,3 Sud 19,3 1015,1 90 -
03:25 10,3 8,7 8,0 S 19,3 1015,1 90 -
03:30 10,3 8,7 6,4 Sud 14,5 1015,1 90 -
03:35 10,2 8,6 12,9 S 17,7 1014,8 90 -
03:40 10,2 8,6 9,7 S 17,7 1014,8 90 -
03:45 10,3 8,7 4,8 S 17,7 1014,4 90 -
03:50 10,3 8,7 8,0 Sud 19,3 1014,4 90 -
03:55 10,2 8,6 12,9 Sud 16,1 1014,4 90 -
04:00 10,2 8,6 6,4 SW 14,5 1014,4 90 -
04:05 10,2 8,6 6,4 S 12,9 1014,4 90 -
04:10 10,1 8,5   calma 6,4 1014,4 90 -
04:15 10,0 8,6 4,8 S 9,7 1014,1 91 -
04:20 9,9 8,5 6,4 S 12,9 1014,4 91 -
04:25 9,9 8,4 14,5 S 16,1 1014,1 91 -
04:30 9,9 8,4 6,4 Sud 12,9 1014,1 91 -
04:35 9,9 8,4 8,0 Sud 16,1 1014,1 91 -
04:40 9,9 8,5 8,0 Sud 14,5 1014,1 91 -
04:45 10,0 8,6 9,7 Sud 17,7 1014,1 91 -
04:50 10,1 8,4 4,8 S 17,7 1013,8 90 -
04:55 10,1 8,5 8,0 Sud 19,3 1013,8 90 -
05:00 10,1 8,5 8,0 Sud 14,5 1013,8 90 -
05:05 10,2 8,6 4,8 Sud 14,5 1013,8 90 -
05:10 10,1 8,5 8,0 Sud 16,1 1013,8 90 -
05:15 10,1 8,6 11,3 Sud 17,7 1013,8 91 -
05:20 10,1 8,6 8,0 Sud 17,7 1013,4 91 -
05:25 10,1 8,6 6,4 Sud 16,1 1013,4 91 -
05:30 10,1 8,6 6,4 Sud 16,1 1013,4 91 -
05:35 10,0 8,6 12,9 S 16,1 1013,4 91 -
05:40 10,0 8,6 8,0 S 12,9 1013,4 91 -
05:45 9,9 8,5 4,8 SE 11,3 1013,4 91 -
05:50 9,8 8,2 9,7 S 12,9 1013,4 90 -
05:55 9,7 8,3 9,7 S 11,3 1013,4 91 -
06:00 9,7 8,3 6,4 S 14,5 1013,1 91 -
06:05 9,7 8,2 6,4 S 11,3 1013,1 91 -
06:10 9,7 8,2 11,3 SE 14,5 1013,1 91 -
06:15 9,7 8,2 16,1 SE 17,7 1013,1 91 -
06:20 9,7 8,3 8,0 S 16,1 1012,8 91 -
06:25 9,7 8,3 8,0 S 12,9 1012,8 91 -
06:30 9,7 8,3 16,1 S 16,1 1012,8 91 -
06:35 9,7 8,1 8,0 S 14,5 1012,8 90 -
06:40 9,7 8,1 8,0 S 12,9 1012,8 90 -
06:45 9,8 8,2 11,3 S 14,5 1012,8 90 -
06:50 9,8 8,1 6,4 S 9,7 1012,8 89 -
06:55 9,8 8,1 6,4 S 9,7 1012,8 89 -
07:00 9,7 7,8 3,2 S 11,3 1012,8 88 -
07:05 9,9 8,1 1,6 S 6,4 1012,8 89 -
07:10 9,9 8,1 1,6 S 4,8 1012,8 89 -
07:15 9,9 7,9 1,6 S 3,2 1012,8 88 -
07:20 9,8 7,7   calma 9,7 1012,8 87 -
07:25 10,2 8,6 6,4 S 8,0 1012,8 90 -
07:30 10,0 7,7 4,8 S 9,7 1012,4 86 -
07:35 9,9 7,8 8,0 SE 14,5 1012,4 87 -
07:40 9,9 7,8 1,6 SE 14,5 1012,4 87 -
07:45 9,9 7,8 8,0 S 12,9 1012,1 87 -
07:50 10,1 7,9 8,0 Sud 17,7 1012,1 87 -
07:55 10,1 8,0 6,4 Sud 16,1 1012,1 87 -
08:00 10,1 8,0 8,0 SE 11,3 1012,4 87 -
08:05 10,2 8,1 12,9 S 14,5 1012,4 87 -
08:10 10,2 7,9 11,3 SE 12,9 1012,1 86 -
08:15 10,2 7,7 11,3 SE 12,9 1012,4 85 -
08:20 10,1 7,7 4,8 S 12,9 1012,1 85 -
08:25 10,1 7,7 3,2 S 12,9 1012,4 85 -
08:30 10,2 7,8 8,0 SE 16,1 1012,1 85 -
08:35 10,3 7,9 1,6 S 11,3 1012,1 85 -
08:40 10,4 7,8 1,6 Sud 11,3 1012,4 84 -
08:45 10,4 8,0 1,6 S 6,4 1012,4 85 -
08:50 10,6 8,0 1,6 Sud 6,4 1012,4 84 -
08:55 10,7 8,1 1,6 S 9,7 1012,4 84 -
09:00 10,9 8,3 20,9 SE 20,9 1012,1 84 -
09:05 11,1 8,5 19,3 SE 30,6 1011,4 84 -
09:10 11,3 8,4 14,5 S 29,0 1011,4 83 -
09:15 11,4 8,4 14,5 SE 35,4 1011,1 82 -
09:20 11,4 8,4 17,7 SE 32,2 1011,1 82 -
09:25 11,4 8,4 11,3 SE 38,6 1011,1 82 -
09:30 11,6 8,4 17,7 SE 32,2 1011,1 81 -
09:35 11,7 8,6 9,7 SE 25,7 1011,1 81 -
09:40 11,8 8,4 14,5 SE 24,1 1011,1 80 -
09:45 12,0 8,4 12,9 S 20,9 1010,7 79 -
09:50 12,1 8,5   calma 24,1 1010,7 79 -
09:55 12,2 8,4 4,8 Sud 16,1 1010,7 78 -
10:00 12,2 8,4 6,4 SE 11,3 1010,7 78 -
10:05 12,3 8,4 8,0 NO 12,9 1011,1 77 -
10:10 12,4 8,4   calma 11,3 1011,1 77 -
10:15 12,7 8,9 20,9 NO 20,9 1011,4 78 -
10:20 12,1 8,9 16,1 NNW 20,9 1011,4 81 -
10:25 11,5 8,9 4,8 Nord 17,7 1011,4 84 -
10:30 11,4 9,2 3,2 NE 8,0 1011,4 86 -
10:35 11,9 9,6 1,6 NE 4,8 1011,4 86 -
10:40 12,1 9,4   calma 6,4 1011,4 84 -
10:45 12,3 9,3   calma 3,2 1011,4 82 -
10:50 12,4 9,0 11,3 S 19,3 1011,4 80 -
10:55 12,3 8,5 17,7 S 20,9 1011,4 78 -
11:00 12,2 8,6 8,0 Sud 22,5 1011,4 79 -
11:05 12,0 8,6 3,2 S 27,4 1011,1 80 -
11:10 11,9 8,6 11,3 S 17,7 1011,4 80 -
11:15 12,1 8,9 8,0 Sud 25,7 1011,1 81 -
11:20 12,2 9,0 8,0 SW 19,3 1011,1 81 -
11:25 12,2 8,8 8,0 S 25,7 1011,1 80 -
11:30 12,2 8,8 16,1 SE 32,2 1010,7 80 -
11:35 12,2 8,8 16,1 Sud 29,0 1010,7 80 -
11:40 12,2 8,8 8,0 Sud 25,7 1010,7 80 -
11:45 12,2 8,8 9,7 Sud 22,5 1010,7 80 -
11:50 12,2 8,8 4,8 Sud 22,5 1010,7 80 -
11:55 12,3 8,9 9,7 S 20,9 1010,4 80 -
12:00 12,3 9,1 4,8 SW 17,7 1010,0 81 -
12:05 12,4 9,2 17,7 Sud 20,9 1010,0 81 -
12:10 12,4 9,2 14,5 Sud 22,5 1009,7 81 -
12:15 12,4 9,2 19,3 S 22,5 1009,7 81 -
12:20 12,5 9,1 20,9 S 22,5 1009,7 80 -
12:25 12,7 9,3 6,4 Sud 24,1 1009,4 80 -
12:30 12,7 9,3 8,0 S 19,3 1009,4 80 -
12:35 12,7 9,3 14,5 SW 20,9 1009,4 80 -
12:40 12,8 9,4 8,0 SW 16,1 1009,4 80 -
12:45 12,9 9,3 12,9 Sud 22,5 1009,4 79 -
12:50 13,1 9,2 8,0 S 20,9 1009,4 77 -
12:55 13,4 9,4 8,0 Sud 19,3 1009,4 77 -
13:00 13,4 9,0 14,5 S 22,5 1009,0 75 -
13:05 13,2 8,8 16,1 SE 25,7 1009,0 75 -
13:10 13,3 9,1 9,7 S 17,7 1008,7 76 -
13:15 13,4 9,2 9,7 SE 17,7 1008,7 76 -
13:20 13,6 9,1 16,1 S 25,7 1008,7 74 -
13:25 13,9 9,1 9,7 S 19,3 1008,7 73 -
13:30 13,6 8,4 24,1 Sud 25,7 1008,4 71 -
13:35 13,5 8,5 16,1 Sud 22,5 1008,7 72 -
13:40 13,4 8,4 8,0 SW 27,4 1008,4 72 -
13:45 13,4 8,7 14,5 S 22,5 1008,4 73 -
13:50 13,6 8,8 14,5 Sud 20,9 1008,4 73 -
13:55 13,6 9,1 9,7 Sud 20,9 1008,0 74 -
14:00 13,7 9,3 9,7 Sud 19,3 1008,0 75 -
14:05 13,4 9,1 16,1 S 20,9 1008,0 75 -
14:10 13,3 9,2 8,0 SW 22,5 1008,0 76 -
14:15 13,2 9,2 8,0 S 20,9 1007,7 77 -
14:20 13,2 9,4 3,2 Sud 19,3 1007,7 78 -
14:25 13,1 9,5 6,4 S 16,1 1008,0 79 -
14:30 13,1 9,7 14,5 SW 16,1 1007,7 80 -
14:35 13,2 9,8 16,1 SW 16,1 1007,7 80 -
14:40 13,2 10,0 4,8 S 14,5 1007,3 81 -
14:45 13,3 10,1 6,4 S 9,7 1007,3 81 -
14:50 13,2 10,0 9,7 S 14,5 1007,3 81 -
14:55 13,2 10,1 6,4 SW 12,9 1007,3 82 -
15:00 13,1 10,2 9,7 SW 16,1 1007,3 83 -
15:05 12,9 10,3 4,8 SW 17,7 1007,3 84 -
15:10 12,8 10,3 4,8 SW 12,9 1007,3 85 -
15:15 12,7 10,2 4,8 SW 8,0 1007,3 85 -
15:20 12,7 10,2 8,0 SW 9,7 1007,3 85 -
15:25 12,7 10,2 6,4 SW 8,0 1007,3 85 -
15:30 12,7 10,3 1,6 W 9,7 1007,3 86 -
15:35 12,7 10,6 6,4 SW 8,0 1007,3 87 -
15:40 12,6 10,5 4,8 SW 11,3 1007,3 87 -
15:45 12,6 10,7 6,4 W 11,3 1007,3 88 -
15:50 12,6 10,7 6,4 S 12,9 1007,3 88 -
15:55 12,7 10,7 8,0 W 22,5 1007,3 88 -
16:00 12,7 10,7 22,5 West 29,0 1007,3 88 -
16:05 12,7 10,6 17,7 West 30,6 1007,3 87 -
16:10 12,7 10,7 9,7 W 20,9 1007,3 88 -
16:15 12,5 10,4 8,0 SW 27,4 1007,3 87 -
16:20 12,3 10,2 6,4 Sud 22,5 1007,3 87 -
16:25 12,2 10,1 4,8 W 19,3 1007,3 87 -
16:30 11,9 9,8 9,7 SW 17,7 1007,3 87 -
16:35 11,8 9,7 6,4 W 14,5 1007,3 87 -
16:40 11,7 9,7 3,2 SW 14,5 1007,3 88 -
16:45 11,6 9,6 4,8 S 9,7 1007,3 88 -
16:50 11,2 9,1 6,4 SW 14,5 1007,3 87 -
16:55 11,1 8,8 4,8 S 11,3 1007,3 86 -
17:00 10,9 8,4 9,7 SW 14,5 1007,3 85 -
17:05 10,8 8,2 8,0 SW 16,1 1007,3 84 -
17:10 10,7 8,1 12,9 W 16,1 1007,3 84 -
17:15 10,6 7,8 12,9 West 16,1 1007,3 83 -
17:20 10,6 7,6 11,3 W 20,9 1007,7 82 -
17:25 10,6 7,3 12,9 West 22,5 1007,7 80 -
17:30 10,6 7,1 4,8 West 17,7 1007,7 79 -
17:35 10,6 7,2 8,0 W 11,3 1007,7 80 -
17:40 10,4 7,1 1,6 S 8,0 1008,0 80 -
17:45 10,4 7,1 4,8 S 11,3 1008,0 80 -
17:50 10,3 6,8 8,0 W 14,5 1008,0 79 -
17:55 10,2 6,8 11,3 W 14,5 1008,0 80 -
18:00 10,1 6,8 1,6 S 12,9 1008,0 80 -
18:05 10,1 6,7 8,0 SW 9,7 1008,0 80 -
18:10 10,0 6,7 4,8 SW 8,0 1008,0 80 -
18:15 9,9 6,6 8,0 SW 12,9 1008,0 80 -
18:20 9,9 6,6 6,4 S 14,5 1008,0 80 -
18:25 9,8 6,7 4,8 S 12,9 1008,0 81 -
18:30 9,7 6,7 3,2 S 8,0 1008,4 82 -
18:35 9,5 6,7 3,2 Sud 9,7 1008,4 83 -
18:40 9,3 6,6 6,4 S 9,7 1008,4 83 -
18:45 9,4 6,6 4,8 S 11,3 1008,4 83 -
18:50 9,5 6,7   calma 12,9 1008,4 83 -
18:55 9,4 6,7 3,2 SE 8,0 1008,4 83 -
19:00 9,3 6,7 6,4 SE 11,3 1008,4 84 -
19:05 9,2 6,6 8,0 SE 12,9 1008,4 84 -
19:10 9,1 6,5 6,4 SE 9,7 1008,4 84 -
19:15 9,2 6,6   calma 6,4 1008,7 84 -
19:20 9,3 6,7   calma 3,2 1008,7 84 -
19:25 9,4 6,8 4,8 SE 6,4 1008,4 84 -
19:30 9,5 6,9 6,4 SE 8,0 1008,4 84 -
19:35 9,6 6,9 6,4 SE 8,0 1008,4 84 -
19:40 9,3 6,7 6,4 SE 8,0 1008,7 84 -
19:45 9,4 6,8 1,6 SE 6,4 1008,4 84 -
19:50 9,5 7,1 3,2 SE 6,4 1008,4 85 -
19:55 9,4 6,8 3,2 SE 4,8 1008,4 84 -
20:00 9,4 6,8 1,6 SE 6,4 1008,0 84 -
20:05 9,2 6,6   calma 3,2 1008,0 84 -
20:10 9,1 6,4 1,6 SE 8,0 1008,4 84 -
20:15 9,2 7,1 3,2 SE 4,8 1008,0 87 -
20:20 9,2 6,6 1,6 S 4,8 1008,0 84 -
20:25 9,4 6,6   calma 3,2 1008,0 83 -
20:30 9,4 6,7   calma   1008,0 83 -
20:35 9,5 6,7 1,6 S 3,2 1008,0 83 -
20:40 9,0 6,2 4,8 S 6,4 1008,0 83 -
20:45 8,7 6,2 4,8 S 6,4 1008,0 84 -
20:50 8,7 6,4 1,6 SE 6,4 1008,4 86 -
20:55 8,7 6,3 1,6 SE 4,8 1008,4 85 -
21:00 8,7 6,3 3,2 SE 4,8 1008,0 85 -
21:05 8,8 6,4 6,4 SE 8,0 1008,0 85 -
21:10 8,7 6,3 6,4 S 8,0 1008,0 85 -
21:15 8,4 6,2 3,2 S 6,4 1008,0 86 -
21:20 8,6 6,2 4,8 Sud 8,0 1008,0 85 -
21:25 8,7 6,2 8,0 Sud 8,0 1008,0 84 -
21:30 8,6 6,0 6,4 SE 16,1 1008,0 84 -
21:35 8,4 5,9 4,8 SE 12,9 1008,0 84 -
21:40 8,4 6,0   calma 9,7 1007,7 85 -
21:45 8,6 6,2   calma 4,8 1007,7 85 -
21:50 8,4 5,9 4,8 SE 9,7 1007,7 84 -
21:55 8,4 6,0 9,7 SE 12,9 1008,0 85 -
22:00 8,3 5,9 12,9 SE 14,5 1008,0 85 -
22:05 8,3 5,9 3,2 SE 12,9 1008,0 85 -
22:10 8,3 5,9 3,2 SE 4,8 1007,7 85 -
22:15 8,4 6,0   calma 6,4 1008,0 85 -
22:20 8,3 5,9 3,2 SE 6,4 1007,7 85 -
22:25 8,2 5,9 1,6 SE 4,8 1007,7 86 -
22:30 8,1 6,0 1,6 SE 4,8 1007,7 87 -
22:35 8,1 6,0 1,6 SE 4,8 1007,7 87 -
22:40 8,3 6,4 3,2 SE 4,8 1007,7 88 -
Quotidiano Riepilogo per Lunedi' 09 Dicembre 2019
Tempo Temp. ( °C ) Dew pt. ( °C ) Vento ( km/h ) da Raffica ( km/h ) Pressione ( hPa ) Humid.( % ) Rainrate ( cm )
Max13,9 10,7 24,1 Sud ( 550/2092 ) 38,6 1017,2 91 -
Media10,8 8,3 7,7 Sud #62/273 15,1 1010,9 85 -
Min8,1 5,9 -   0,0 1007,3 71 -
Quotidiano Tabular details for Lunedi' 09 Dicembre 2019
Tempo Temp. ( °C ) Dew pt. ( °C ) Vento ( km/h ) da Raffica ( km/h ) Pressione ( hPa ) Humid.( % ) Rainrate ( cm )
00:00 11,0 8,9 12,9 Sud 16,1 1017,2 87 -
00:05 11,1 8,9 6,4 Sud 16,1 1017,2 87 -
00:10 11,0 8,9 9,7 S 14,5 1017,2 87 -
00:15 11,0 8,9 14,5 Sud 16,1 1017,2 87 -
00:20 11,1 8,9 8,0 Sud 17,7 1017,2 87 -
00:25 11,0 9,1 9,7 S 14,5 1017,2 88 -
00:30 11,1 9,1 9,7 Sud 17,7 1016,8 88 -
00:35 11,0 9,1 3,2 S 16,1 1016,8 88 -
00:40 11,1 9,1 6,4 S 17,7 1016,8 88 -
00:45 11,1 9,3 9,7 Sud 16,1 1016,5 89 -
00:50 11,0 9,2 9,7 S 14,5 1016,5 89 -
00:55 11,0 9,2 4,8 SE 16,1 1016,5 89 -
01:00 10,9 9,2 12,9 S 16,1 1016,5 89 -
01:05 10,9 9,2 9,7 S 17,7 1016,5 89 -
01:10 11,0 9,2 6,4 S 20,9 1016,5 89 -
01:15 10,9 9,2 3,2 S 19,3 1016,1 89 -
01:20 10,9 9,2 14,5 SE 22,5 1016,1 89 -
01:25 11,0 9,2 8,0 Sud 16,1 1016,1 89 -
01:30 10,9 9,2 6,4 Sud 17,7 1016,1 89 -
01:35 11,0 9,2 6,4 S 14,5 1016,1 89 -
01:40 11,0 9,2 12,9 Sud 17,7 1016,1 89 -
01:45 11,1 9,3 6,4 S 16,1 1015,8 89 -
01:50 11,0 9,2 9,7 Sud 17,7 1015,8 89 -
01:55 10,9 9,2 16,1 Sud 19,3 1015,8 89 -
02:00 10,9 9,2 1,6 Sud 17,7 1015,8 89 -
02:05 11,0 9,2 4,8 S 16,1 1015,8 89 -
02:10 11,0 9,2 6,4 S 16,1 1015,8 89 -
02:15 11,0 9,2 3,2 S 17,7 1015,8 89 -
02:20 11,0 9,2 6,4 S 16,1 1015,8 89 -
02:25 11,0 9,2 4,8 Sud 14,5 1015,8 89 -
02:30 10,9 9,3 8,0 Sud 16,1 1015,8 90 -
02:35 10,9 9,3 3,2 S 14,5 1015,5 90 -
02:40 10,9 9,3 9,7 Sud 17,7 1015,5 90 -
02:45 10,8 9,2 6,4 Sud 17,7 1015,5 90 -
02:50 10,7 9,1 4,8 Sud 17,7 1015,5 90 -
02:55 10,7 9,1 9,7 S 19,3 1015,5 90 -
03:00 10,6 9,0 11,3 Sud 17,7 1015,5 90 -
03:05 10,5 8,9 8,0 Sud 17,7 1015,5 90 -
03:10 10,4 8,8 12,9 S 19,3 1015,5 90 -
03:15 10,4 8,8 12,9 Sud 19,3 1015,1 90 -
03:20 10,3 8,7 11,3 Sud 19,3 1015,1 90 -
03:25 10,3 8,7 8,0 S 19,3 1015,1 90 -
03:30 10,3 8,7 6,4 Sud 14,5 1015,1 90 -
03:35 10,2 8,6 12,9 S 17,7 1014,8 90 -
03:40 10,2 8,6 9,7 S 17,7 1014,8 90 -
03:45 10,3 8,7 4,8 S 17,7 1014,4 90 -
03:50 10,3 8,7 8,0 Sud 19,3 1014,4 90 -
03:55 10,2 8,6 12,9 Sud 16,1 1014,4 90 -
04:00 10,2 8,6 6,4 SW 14,5 1014,4 90 -
04:05 10,2 8,6 6,4 S 12,9 1014,4 90 -
04:10 10,1 8,5   calma 6,4 1014,4 90 -
04:15 10,0 8,6 4,8 S 9,7 1014,1 91 -
04:20 9,9 8,5 6,4 S 12,9 1014,4 91 -
04:25 9,9 8,4 14,5 S 16,1 1014,1 91 -
04:30 9,9 8,4 6,4 Sud 12,9 1014,1 91 -
04:35 9,9 8,4 8,0 Sud 16,1 1014,1 91 -
04:40 9,9 8,5 8,0 Sud 14,5 1014,1 91 -
04:45 10,0 8,6 9,7 Sud 17,7 1014,1 91 -
04:50 10,1 8,4 4,8 S 17,7 1013,8 90 -
04:55 10,1 8,5 8,0 Sud 19,3 1013,8 90 -
05:00 10,1 8,5 8,0 Sud 14,5 1013,8 90 -
05:05 10,2 8,6 4,8 Sud 14,5 1013,8 90 -
05:10 10,1 8,5 8,0 Sud 16,1 1013,8 90 -
05:15 10,1 8,6 11,3 Sud 17,7 1013,8 91 -
05:20 10,1 8,6 8,0 Sud 17,7 1013,4 91 -
05:25 10,1 8,6 6,4 Sud 16,1 1013,4 91 -
05:30 10,1 8,6 6,4 Sud 16,1 1013,4 91 -
05:35 10,0 8,6 12,9 S 16,1 1013,4 91 -
05:40 10,0 8,6 8,0 S 12,9 1013,4 91 -
05:45 9,9 8,5 4,8 SE 11,3 1013,4 91 -
05:50 9,8 8,2 9,7 S 12,9 1013,4 90 -
05:55 9,7 8,3 9,7 S 11,3 1013,4 91 -
06:00 9,7 8,3 6,4 S 14,5 1013,1 91 -
06:05 9,7 8,2 6,4 S 11,3 1013,1 91 -
06:10 9,7 8,2 11,3 SE 14,5 1013,1 91 -
06:15 9,7 8,2 16,1 SE 17,7 1013,1 91 -
06:20 9,7 8,3 8,0 S 16,1 1012,8 91 -
06:25 9,7 8,3 8,0 S 12,9 1012,8 91 -
06:30 9,7 8,3 16,1 S 16,1 1012,8 91 -
06:35 9,7 8,1 8,0 S 14,5 1012,8 90 -
06:40 9,7 8,1 8,0 S 12,9 1012,8 90 -
06:45 9,8 8,2 11,3 S 14,5 1012,8 90 -
06:50 9,8 8,1 6,4 S 9,7 1012,8 89 -
06:55 9,8 8,1 6,4 S 9,7 1012,8 89 -
07:00 9,7 7,8 3,2 S 11,3 1012,8 88 -
07:05 9,9 8,1 1,6 S 6,4 1012,8 89 -
07:10 9,9 8,1 1,6 S 4,8 1012,8 89 -
07:15 9,9 7,9 1,6 S 3,2 1012,8 88 -
07:20 9,8 7,7   calma 9,7 1012,8 87 -
07:25 10,2 8,6 6,4 S 8,0 1012,8 90 -
07:30 10,0 7,7 4,8 S 9,7 1012,4 86 -
07:35 9,9 7,8 8,0 SE 14,5 1012,4 87 -
07:40 9,9 7,8 1,6 SE 14,5 1012,4 87 -
07:45 9,9 7,8 8,0 S 12,9 1012,1 87 -
07:50 10,1 7,9 8,0 Sud 17,7 1012,1 87 -
07:55 10,1 8,0 6,4 Sud 16,1 1012,1 87 -
08:00 10,1 8,0 8,0 SE 11,3 1012,4 87 -
08:05 10,2 8,1 12,9 S 14,5 1012,4 87 -
08:10 10,2 7,9 11,3 SE 12,9 1012,1 86 -
08:15 10,2 7,7 11,3 SE 12,9 1012,4 85 -
08:20 10,1 7,7 4,8 S 12,9 1012,1 85 -
08:25 10,1 7,7 3,2 S 12,9 1012,4 85 -
08:30 10,2 7,8 8,0 SE 16,1 1012,1 85 -
08:35 10,3 7,9 1,6 S 11,3 1012,1 85 -
08:40 10,4 7,8 1,6 Sud 11,3 1012,4 84 -
08:45 10,4 8,0 1,6 S 6,4 1012,4 85 -
08:50 10,6 8,0 1,6 Sud 6,4 1012,4 84 -
08:55 10,7 8,1 1,6 S 9,7 1012,4 84 -
09:00 10,9 8,3 20,9 SE 20,9 1012,1 84 -
09:05 11,1 8,5 19,3 SE 30,6 1011,4 84 -
09:10 11,3 8,4 14,5 S 29,0 1011,4 83 -
09:15 11,4 8,4 14,5 SE 35,4 1011,1 82 -
09:20 11,4 8,4 17,7 SE 32,2 1011,1 82 -
09:25 11,4 8,4 11,3 SE 38,6 1011,1 82 -
09:30 11,6 8,4 17,7 SE 32,2 1011,1 81 -
09:35 11,7 8,6 9,7 SE 25,7 1011,1 81 -
09:40 11,8 8,4 14,5 SE 24,1 1011,1 80 -
09:45 12,0 8,4 12,9 S 20,9 1010,7 79 -
09:50 12,1 8,5   calma 24,1 1010,7 79 -
09:55 12,2 8,4 4,8 Sud 16,1 1010,7 78 -
10:00 12,2 8,4 6,4 SE 11,3 1010,7 78 -
10:05 12,3 8,4 8,0 NO 12,9 1011,1 77 -
10:10 12,4 8,4   calma 11,3 1011,1 77 -
10:15 12,7 8,9 20,9 NO 20,9 1011,4 78 -
10:20 12,1 8,9 16,1 NNW 20,9 1011,4 81 -
10:25 11,5 8,9 4,8 Nord 17,7 1011,4 84 -
10:30 11,4 9,2 3,2 NE 8,0 1011,4 86 -
10:35 11,9 9,6 1,6 NE 4,8 1011,4 86 -
10:40 12,1 9,4   calma 6,4 1011,4 84 -
10:45 12,3 9,3   calma 3,2 1011,4 82 -
10:50 12,4 9,0 11,3 S 19,3 1011,4 80 -
10:55 12,3 8,5 17,7 S 20,9 1011,4 78 -
11:00 12,2 8,6 8,0 Sud 22,5 1011,4 79 -
11:05 12,0 8,6 3,2 S 27,4 1011,1 80 -
11:10 11,9 8,6 11,3 S 17,7 1011,4 80 -
11:15 12,1 8,9 8,0 Sud 25,7 1011,1 81 -
11:20 12,2 9,0 8,0 SW 19,3 1011,1 81 -
11:25 12,2 8,8 8,0 S 25,7 1011,1 80 -
11:30 12,2 8,8 16,1 SE 32,2 1010,7 80 -
11:35 12,2 8,8 16,1 Sud 29,0 1010,7 80 -
11:40 12,2 8,8 8,0 Sud 25,7 1010,7 80 -
11:45 12,2 8,8 9,7 Sud 22,5 1010,7 80 -
11:50 12,2 8,8 4,8 Sud 22,5 1010,7 80 -
11:55 12,3 8,9 9,7 S 20,9 1010,4 80 -
12:00 12,3 9,1 4,8 SW 17,7 1010,0 81 -
12:05 12,4 9,2 17,7 Sud 20,9 1010,0 81 -
12:10 12,4 9,2 14,5 Sud 22,5 1009,7 81 -
12:15 12,4 9,2 19,3 S 22,5 1009,7 81 -
12:20 12,5 9,1 20,9 S 22,5 1009,7 80 -
12:25 12,7 9,3 6,4 Sud 24,1 1009,4 80 -
12:30 12,7 9,3 8,0 S 19,3 1009,4 80 -
12:35 12,7 9,3 14,5 SW 20,9 1009,4 80 -
12:40 12,8 9,4 8,0 SW 16,1 1009,4 80 -
12:45 12,9 9,3 12,9 Sud 22,5 1009,4 79 -
12:50 13,1 9,2 8,0 S 20,9 1009,4 77 -
12:55 13,4 9,4 8,0 Sud 19,3 1009,4 77 -
13:00 13,4 9,0 14,5 S 22,5 1009,0 75 -
13:05 13,2 8,8 16,1 SE 25,7 1009,0 75 -
13:10 13,3 9,1 9,7 S 17,7 1008,7 76 -
13:15 13,4 9,2 9,7 SE 17,7 1008,7 76 -
13:20 13,6 9,1 16,1 S 25,7 1008,7 74 -
13:25 13,9 9,1 9,7 S 19,3 1008,7 73 -
13:30 13,6 8,4 24,1 Sud 25,7 1008,4 71 -
13:35 13,5 8,5 16,1 Sud 22,5 1008,7 72 -
13:40 13,4 8,4 8,0 SW 27,4 1008,4 72 -
13:45 13,4 8,7 14,5 S 22,5 1008,4 73 -
13:50 13,6 8,8 14,5 Sud 20,9 1008,4 73 -
13:55 13,6 9,1 9,7 Sud 20,9 1008,0 74 -
14:00 13,7 9,3 9,7 Sud 19,3 1008,0 75 -
14:05 13,4 9,1 16,1 S 20,9 1008,0 75 -
14:10 13,3 9,2 8,0 SW 22,5 1008,0 76 -
14:15 13,2 9,2 8,0 S 20,9 1007,7 77 -
14:20 13,2 9,4 3,2 Sud 19,3 1007,7 78 -
14:25 13,1 9,5 6,4 S 16,1 1008,0 79 -
14:30 13,1 9,7 14,5 SW 16,1 1007,7 80 -
14:35 13,2 9,8 16,1 SW 16,1 1007,7 80 -
14:40 13,2 10,0 4,8 S 14,5 1007,3 81 -
14:45 13,3 10,1 6,4 S 9,7 1007,3 81 -
14:50 13,2 10,0 9,7 S 14,5 1007,3 81 -
14:55 13,2 10,1 6,4 SW 12,9 1007,3 82 -
15:00 13,1 10,2 9,7 SW 16,1 1007,3 83 -
15:05 12,9 10,3 4,8 SW 17,7 1007,3 84 -
15:10 12,8 10,3 4,8 SW 12,9 1007,3 85 -
15:15 12,7 10,2 4,8 SW 8,0 1007,3 85 -
15:20 12,7 10,2 8,0 SW 9,7 1007,3 85 -
15:25 12,7 10,2 6,4 SW 8,0 1007,3 85 -
15:30 12,7 10,3 1,6 W 9,7 1007,3 86 -
15:35 12,7 10,6 6,4 SW 8,0 1007,3 87 -
15:40 12,6 10,5 4,8 SW 11,3 1007,3 87 -
15:45 12,6 10,7 6,4 W 11,3 1007,3 88 -
15:50 12,6 10,7 6,4 S 12,9 1007,3 88 -
15:55 12,7 10,7 8,0 W 22,5 1007,3 88 -
16:00 12,7 10,7 22,5 West 29,0 1007,3 88 -
16:05 12,7 10,6 17,7 West 30,6 1007,3 87 -
16:10 12,7 10,7 9,7 W 20,9 1007,3 88 -
16:15 12,5 10,4 8,0 SW 27,4 1007,3 87 -
16:20 12,3 10,2 6,4 Sud 22,5 1007,3 87 -
16:25 12,2 10,1 4,8 W 19,3 1007,3 87 -
16:30 11,9 9,8 9,7 SW 17,7 1007,3 87 -
16:35 11,8 9,7 6,4 W 14,5 1007,3 87 -
16:40 11,7 9,7 3,2 SW 14,5 1007,3 88 -
16:45 11,6 9,6 4,8 S 9,7 1007,3 88 -
16:50 11,2 9,1 6,4 SW 14,5 1007,3 87 -
16:55 11,1 8,8 4,8 S 11,3 1007,3 86 -
17:00 10,9 8,4 9,7 SW 14,5 1007,3 85 -
17:05 10,8 8,2 8,0 SW 16,1 1007,3 84 -
17:10 10,7 8,1 12,9 W 16,1 1007,3 84 -
17:15 10,6 7,8 12,9 West 16,1 1007,3 83 -
17:20 10,6 7,6 11,3 W 20,9 1007,7 82 -
17:25 10,6 7,3 12,9 West 22,5 1007,7 80 -
17:30 10,6 7,1 4,8 West 17,7 1007,7 79 -
17:35 10,6 7,2 8,0 W 11,3 1007,7 80 -
17:40 10,4 7,1 1,6 S 8,0 1008,0 80 -
17:45 10,4 7,1 4,8 S 11,3 1008,0 80 -
17:50 10,3 6,8 8,0 W 14,5 1008,0 79 -
17:55 10,2 6,8 11,3 W 14,5 1008,0 80 -
18:00 10,1 6,8 1,6 S 12,9 1008,0 80 -
18:05 10,1 6,7 8,0 SW 9,7 1008,0 80 -
18:10 10,0 6,7 4,8 SW 8,0 1008,0 80 -
18:15 9,9 6,6 8,0 SW 12,9 1008,0 80 -
18:20 9,9 6,6 6,4 S 14,5 1008,0 80 -
18:25 9,8 6,7 4,8 S 12,9 1008,0 81 -
18:30 9,7 6,7 3,2 S 8,0 1008,4 82 -
18:35 9,5 6,7 3,2 Sud 9,7 1008,4 83 -
18:40 9,3 6,6 6,4 S 9,7 1008,4 83 -
18:45 9,4 6,6 4,8 S 11,3 1008,4 83 -
18:50 9,5 6,7   calma 12,9 1008,4 83 -
18:55 9,4 6,7 3,2 SE 8,0 1008,4 83 -
19:00 9,3 6,7 6,4 SE 11,3 1008,4 84 -
19:05 9,2 6,6 8,0 SE 12,9 1008,4 84 -
19:10 9,1 6,5 6,4 SE 9,7 1008,4 84 -
19:15 9,2 6,6   calma 6,4 1008,7 84 -
19:20 9,3 6,7   calma 3,2 1008,7 84 -
19:25 9,4 6,8 4,8 SE 6,4 1008,4 84 -
19:30 9,5 6,9 6,4 SE 8,0 1008,4 84 -
19:35 9,6 6,9 6,4 SE 8,0 1008,4 84 -
19:40 9,3 6,7 6,4 SE 8,0 1008,7 84 -
19:45 9,4 6,8 1,6 SE 6,4 1008,4 84 -
19:50 9,5 7,1 3,2 SE 6,4 1008,4 85 -
19:55 9,4 6,8 3,2 SE 4,8 1008,4 84 -
20:00 9,4 6,8 1,6 SE 6,4 1008,0 84 -
20:05 9,2 6,6   calma 3,2 1008,0 84 -
20:10 9,1 6,4 1,6 SE 8,0 1008,4 84 -
20:15 9,2 7,1 3,2 SE 4,8 1008,0 87 -
20:20 9,2 6,6 1,6 S 4,8 1008,0 84 -
20:25 9,4 6,6   calma 3,2 1008,0 83 -
20:30 9,4 6,7   calma   1008,0 83 -
20:35 9,5 6,7 1,6 S 3,2 1008,0 83 -
20:40 9,0 6,2 4,8 S 6,4 1008,0 83 -
20:45 8,7 6,2 4,8 S 6,4 1008,0 84 -
20:50 8,7 6,4 1,6 SE 6,4 1008,4 86 -
20:55 8,7 6,3 1,6 SE 4,8 1008,4 85 -
21:00 8,7 6,3 3,2 SE 4,8 1008,0 85 -
21:05 8,8 6,4 6,4 SE 8,0 1008,0 85 -
21:10 8,7 6,3 6,4 S 8,0 1008,0 85 -
21:15 8,4 6,2 3,2 S 6,4 1008,0 86 -
21:20 8,6 6,2 4,8 Sud 8,0 1008,0 85 -
21:25 8,7 6,2 8,0 Sud 8,0 1008,0 84 -
21:30 8,6 6,0 6,4 SE 16,1 1008,0 84 -
21:35 8,4 5,9 4,8 SE 12,9 1008,0 84 -
21:40 8,4 6,0   calma 9,7 1007,7 85 -
21:45 8,6 6,2   calma 4,8 1007,7 85 -
21:50 8,4 5,9 4,8 SE 9,7 1007,7 84 -
21:55 8,4 6,0 9,7 SE 12,9 1008,0 85 -
22:00 8,3 5,9 12,9 SE 14,5 1008,0 85 -
22:05 8,3 5,9 3,2 SE 12,9 1008,0 85 -
22:10 8,3 5,9 3,2 SE 4,8 1007,7 85 -
22:15 8,4 6,0   calma 6,4 1008,0 85 -
22:20 8,3 5,9 3,2 SE 6,4 1007,7 85 -
22:25 8,2 5,9 1,6 SE 4,8 1007,7 86 -
22:30 8,1 6,0 1,6 SE 4,8 1007,7 87 -
22:35 8,1 6,0 1,6 SE 4,8 1007,7 87 -
22:40 8,3 6,4 3,2 SE 4,8 1007,7 88 -

Download your copy of this data-set  here

Our weather-data as stored at Weather Underground. Script sviluppato da Jim McMurry. Adattato per il modello da Leuven-Template.eu

Strumentazione usata:

Stazione meteo
Davis VP2

Programma gestore dati meteo
WVIEW

Server per i dati meteo
WDS-5

Davis VP2

WVIEW

WDS-5